Tabellarische Ansicht des 12.6.2019


Die einzelnen Werte des Tages

Uhrzeit Temperatur Luftdruck Luftfeuchte Wind Hi-Wind Taupunkt THW Index Wind Chill Heat Index Solar- strahlung Regen

00:00

16.9 C

1007.0 hpa

85 %

1.6 km/h aus 116

4.8 km/h aus NNW

14.4 C

17.2 C

16.9 C

17.2 C

0 W/m

0.00 mm

00:05

16.9 C

1007.0 hpa

85 %

0.0 km/h aus 114

1.6 km/h aus NNW

14.3 C

17.1 C

16.9 C

17.1 C

0 W/m

0.00 mm

00:10

16.8 C

1007.0 hpa

85 %

0.0 km/h aus 116

3.2 km/h aus NNW

14.3 C

17.1 C

16.8 C

17.1 C

0 W/m

0.00 mm

00:15

16.8 C

1007.0 hpa

85 %

0.0 km/h aus 117

0.0 km/h aus ---

14.2 C

16.9 C

16.8 C

16.9 C

0 W/m

0.00 mm

00:20

16.7 C

1007.0 hpa

84 %

0.0 km/h aus 117

0.0 km/h aus ---

14.0 C

16.9 C

16.7 C

16.9 C

0 W/m

0.00 mm

00:25

16.7 C

1007.0 hpa

84 %

0.0 km/h aus 115

0.0 km/h aus ---

13.9 C

16.8 C

16.7 C

16.8 C

0 W/m

0.00 mm

00:30

16.6 C

1007.1 hpa

85 %

0.0 km/h aus 115

0.0 km/h aus ---

14.1 C

16.8 C

16.6 C

16.8 C

0 W/m

0.00 mm

00:35

16.6 C

1007.1 hpa

85 %

0.0 km/h aus 117

0.0 km/h aus ---

14.0 C

16.7 C

16.6 C

16.7 C

0 W/m

0.00 mm

00:40

16.5 C

1007.1 hpa

85 %

1.6 km/h aus 117

4.8 km/h aus NNW

14.0 C

16.7 C

16.5 C

16.7 C

0 W/m

0.00 mm

00:45

16.4 C

1007.8 hpa

85 %

3.2 km/h aus 117

4.8 km/h aus NNW

13.9 C

16.6 C

16.4 C

16.6 C

0 W/m

0.00 mm

00:50

16.4 C

1007.8 hpa

86 %

1.6 km/h aus 115

3.2 km/h aus NNE

14.1 C

16.6 C

16.4 C

16.6 C

0 W/m

0.00 mm

00:55

16.4 C

1007.8 hpa

86 %

1.6 km/h aus 116

3.2 km/h aus NNE

14.0 C

16.6 C

16.4 C

16.6 C

0 W/m

0.00 mm

01:00

16.3 C

1008.0 hpa

86 %

1.6 km/h aus 117

4.8 km/h aus NNE

14.0 C

16.5 C

16.3 C

16.5 C

0 W/m

0.00 mm

01:05

16.3 C

1008.0 hpa

86 %

1.6 km/h aus 117

3.2 km/h aus NNE

14.0 C

16.5 C

16.3 C

16.5 C

0 W/m

0.00 mm

01:10

16.3 C

1008.0 hpa

86 %

1.6 km/h aus 114

4.8 km/h aus NNE

14.0 C

16.5 C

16.3 C

16.5 C

0 W/m

0.00 mm

01:15

16.3 C

1007.7 hpa

87 %

1.6 km/h aus 115

3.2 km/h aus NNE

14.1 C

16.4 C

16.3 C

16.4 C

0 W/m

0.00 mm

01:20

16.3 C

1007.7 hpa

87 %

3.2 km/h aus 116

4.8 km/h aus NNE

14.1 C

16.4 C

16.3 C

16.4 C

0 W/m

0.00 mm

01:25

16.3 C

1007.7 hpa

87 %

3.2 km/h aus 117

4.8 km/h aus NNE

14.1 C

16.4 C

16.3 C

16.4 C

0 W/m

0.00 mm

01:30

16.2 C

1007.5 hpa

87 %

3.2 km/h aus 117

4.8 km/h aus NNE

14.1 C

16.4 C

16.2 C

16.4 C

0 W/m

0.00 mm

01:35

16.2 C

1007.5 hpa

87 %

3.2 km/h aus 116

6.4 km/h aus NNW

14.1 C

16.4 C

16.2 C

16.4 C

0 W/m

0.00 mm

01:40

16.2 C

1007.5 hpa

87 %

3.2 km/h aus 115

4.8 km/h aus NNW

14.0 C

16.3 C

16.2 C

16.3 C

0 W/m

0.00 mm

01:45

16.2 C

1007.5 hpa

88 %

1.6 km/h aus 116

4.8 km/h aus NNW

14.2 C

16.3 C

16.2 C

16.3 C

0 W/m

0.00 mm

01:50

16.1 C

1007.5 hpa

88 %

3.2 km/h aus 117

4.8 km/h aus NNW

14.1 C

16.3 C

16.1 C

16.3 C

0 W/m

0.00 mm

01:55

16.1 C

1007.5 hpa

88 %

1.6 km/h aus 117

3.2 km/h aus NNW

14.1 C

16.2 C

16.1 C

16.2 C

0 W/m

0.00 mm

02:00

16.1 C

1007.3 hpa

88 %

0.0 km/h aus 114

1.6 km/h aus NNW

14.1 C

16.2 C

16.1 C

16.2 C

0 W/m

0.00 mm

02:05

16.0 C

1007.3 hpa

88 %

0.0 km/h aus 114

1.6 km/h aus NNW

14.0 C

16.2 C

16.0 C

16.2 C

0 W/m

0.00 mm

02:10

15.9 C

1007.3 hpa

88 %

0.0 km/h aus 117

0.0 km/h aus ---

14.0 C

16.1 C

15.9 C

16.1 C

0 W/m

0.00 mm

02:15

15.9 C

1007.5 hpa

88 %

1.6 km/h aus 117

4.8 km/h aus NNW

13.9 C

16.1 C

15.9 C

16.1 C

0 W/m

0.00 mm

02:20

15.8 C

1007.5 hpa

88 %

1.6 km/h aus 117

4.8 km/h aus NNW

13.8 C

15.9 C

15.8 C

15.9 C

0 W/m

0.00 mm

02:25

15.7 C

1007.5 hpa

88 %

0.0 km/h aus 116

3.2 km/h aus NNW

13.7 C

15.8 C

15.7 C

15.8 C

0 W/m

0.00 mm

02:30

15.7 C

1007.5 hpa

88 %

0.0 km/h aus 115

1.6 km/h aus NNW

13.7 C

15.8 C

15.7 C

15.8 C

0 W/m

0.00 mm

02:35

15.7 C

1007.5 hpa

89 %

1.6 km/h aus 117

4.8 km/h aus NNW

13.9 C

15.8 C

15.7 C

15.8 C

0 W/m

0.00 mm

02:40

15.7 C

1007.5 hpa

89 %

3.2 km/h aus 117

6.4 km/h aus E

13.9 C

15.8 C

15.7 C

15.8 C

0 W/m

0.00 mm

02:45

15.7 C

1007.9 hpa

89 %

1.6 km/h aus 117

3.2 km/h aus E

13.9 C

15.8 C

15.7 C

15.8 C

0 W/m

0.00 mm

02:50

15.7 C

1007.9 hpa

90 %

0.0 km/h aus 116

3.2 km/h aus E

14.1 C

15.9 C

15.7 C

15.9 C

0 W/m

0.00 mm

02:55

15.7 C

1007.9 hpa

90 %

1.6 km/h aus 113

4.8 km/h aus ENE

14.1 C

15.9 C

15.7 C

15.9 C

0 W/m

0.00 mm

03:00

15.8 C

1007.4 hpa

90 %

1.6 km/h aus 117

3.2 km/h aus ENE

14.1 C

15.9 C

15.8 C

15.9 C

0 W/m

0.00 mm

03:05

15.8 C

1007.4 hpa

90 %

1.6 km/h aus 117

4.8 km/h aus ENE

14.1 C

15.9 C

15.8 C

15.9 C

0 W/m

0.00 mm

03:10

15.8 C

1007.4 hpa

90 %

3.2 km/h aus 116

4.8 km/h aus NE

14.2 C

16.1 C

15.8 C

16.1 C

0 W/m

0.00 mm

03:15

15.8 C

1007.0 hpa

91 %

1.6 km/h aus 115

4.8 km/h aus N

14.4 C

16.1 C

15.8 C

16.1 C

0 W/m

0.00 mm

03:20

15.9 C

1007.0 hpa

91 %

1.6 km/h aus 114

4.8 km/h aus N

14.4 C

16.1 C

15.9 C

16.1 C

0 W/m

0.00 mm

03:25

15.9 C

1007.0 hpa

91 %

1.6 km/h aus 117

3.2 km/h aus N

14.4 C

16.1 C

15.9 C

16.1 C

0 W/m

0.00 mm

03:30

15.9 C

1006.6 hpa

91 %

4.8 km/h aus 116

6.4 km/h aus NW

14.5 C

16.2 C

15.9 C

16.2 C

0 W/m

0.00 mm

03:35

15.9 C

1006.6 hpa

91 %

1.6 km/h aus 118

6.4 km/h aus WNW

14.5 C

16.2 C

15.9 C

16.2 C

0 W/m

0.00 mm

03:40

15.9 C

1006.6 hpa

91 %

1.6 km/h aus 115

4.8 km/h aus WNW

14.5 C

16.2 C

15.9 C

16.2 C

0 W/m

0.00 mm

03:45

16.0 C

1006.5 hpa

91 %

1.6 km/h aus 115

4.8 km/h aus WNW

14.5 C

16.2 C

16.0 C

16.2 C

0 W/m

0.00 mm

03:50

15.9 C

1006.5 hpa

91 %

3.2 km/h aus 116

4.8 km/h aus WNW

14.5 C

16.2 C

15.9 C

16.2 C

0 W/m

0.00 mm

03:55

16.0 C

1006.5 hpa

91 %

1.6 km/h aus 117

4.8 km/h aus WNW

14.5 C

16.2 C

16.0 C

16.2 C

0 W/m

0.00 mm

04:00

16.0 C

1006.8 hpa

91 %

1.6 km/h aus 115

4.8 km/h aus WNW

14.5 C

16.2 C

16.0 C

16.2 C

0 W/m

0.00 mm

04:05

16.0 C

1006.8 hpa

91 %

1.6 km/h aus 115

6.4 km/h aus WNW

14.5 C

16.2 C

16.0 C

16.2 C

0 W/m

0.00 mm

04:10

16.1 C

1006.8 hpa

91 %

3.2 km/h aus 116

6.4 km/h aus WNW

14.6 C

16.3 C

16.1 C

16.3 C

0 W/m

0.00 mm

04:15

16.0 C

1006.7 hpa

91 %

3.2 km/h aus 116

6.4 km/h aus WNW

14.5 C

16.2 C

16.0 C

16.2 C

0 W/m

0.00 mm

04:20

16.0 C

1006.7 hpa

91 %

3.2 km/h aus 117

6.4 km/h aus WNW

14.5 C

16.2 C

16.0 C

16.2 C

0 W/m

0.00 mm

04:25

15.9 C

1006.7 hpa

91 %

4.8 km/h aus 116

8.0 km/h aus W

14.5 C

16.2 C

15.9 C

16.2 C

0 W/m

0.00 mm

04:30

15.9 C

1006.4 hpa

91 %

4.8 km/h aus 115

9.7 km/h aus WNW

14.5 C

16.2 C

15.9 C

16.2 C

0 W/m

0.00 mm

04:35

15.9 C

1006.4 hpa

91 %

4.8 km/h aus 117

8.0 km/h aus W

14.4 C

16.1 C

15.9 C

16.1 C

0 W/m

0.00 mm

04:40

15.8 C

1006.4 hpa

91 %

3.2 km/h aus 116

6.4 km/h aus W

14.4 C

16.1 C

15.8 C

16.1 C

0 W/m

0.00 mm

04:45

15.8 C

1006.5 hpa

91 %

1.6 km/h aus 117

3.2 km/h aus W

14.4 C

16.1 C

15.8 C

16.1 C

0 W/m

0.00 mm

04:50

15.8 C

1006.5 hpa

91 %

1.6 km/h aus 115

3.2 km/h aus W

14.4 C

16.1 C

15.8 C

16.1 C

0 W/m

0.00 mm

04:55

15.8 C

1006.5 hpa

91 %

0.0 km/h aus 114

4.8 km/h aus W

14.4 C

16.1 C

15.8 C

16.1 C

0 W/m

0.00 mm

05:00

15.8 C

1006.3 hpa

91 %

3.2 km/h aus 117

6.4 km/h aus W

14.4 C

16.1 C

15.8 C

16.1 C

0 W/m

0.00 mm

05:05

15.8 C

1006.3 hpa

91 %

1.6 km/h aus 117

4.8 km/h aus W

14.4 C

16.1 C

15.8 C

16.1 C

0 W/m

0.00 mm

05:10

15.8 C

1006.3 hpa

91 %

3.2 km/h aus 116

4.8 km/h aus W

14.4 C

16.1 C

15.8 C

16.1 C

0 W/m

0.00 mm

05:15

15.8 C

1006.5 hpa

91 %

4.8 km/h aus 116

6.4 km/h aus W

14.3 C

16.0 C

15.8 C

16.0 C

0 W/m

0.00 mm

05:20

15.8 C

1006.5 hpa

91 %

3.2 km/h aus 113

6.4 km/h aus W

14.4 C

16.1 C

15.8 C

16.1 C

0 W/m

0.00 mm

05:25

15.8 C

1006.5 hpa

91 %

3.2 km/h aus 117

4.8 km/h aus W

14.4 C

16.1 C

15.8 C

16.1 C

0 W/m

0.00 mm

05:30

15.8 C

1006.0 hpa

91 %

3.2 km/h aus 116

6.4 km/h aus W

14.4 C

16.1 C

15.8 C

16.1 C

5 W/m

0.00 mm

05:35

15.8 C

1006.0 hpa

91 %

3.2 km/h aus 117

8.0 km/h aus WNW

14.4 C

16.1 C

15.8 C

16.1 C

8 W/m

0.00 mm

05:40

15.8 C

1006.0 hpa

91 %

3.2 km/h aus 117

6.4 km/h aus WNW

14.4 C

16.1 C

15.8 C

16.1 C

11 W/m

0.00 mm

05:45

15.8 C

1006.0 hpa

91 %

1.6 km/h aus 115

4.8 km/h aus WNW

14.4 C

16.1 C

15.8 C

16.1 C

17 W/m

0.00 mm

05:50

15.8 C

1006.0 hpa

91 %

4.8 km/h aus 117

8.0 km/h aus WNW

14.3 C

16.0 C

15.8 C

16.0 C

26 W/m

0.00 mm

05:55

15.8 C

1006.0 hpa

91 %

3.2 km/h aus 117

4.8 km/h aus WNW

14.3 C

16.0 C

15.8 C

16.0 C

31 W/m

0.00 mm

06:00

15.7 C

1005.9 hpa

91 %

3.2 km/h aus 116

4.8 km/h aus WNW

14.3 C

15.9 C

15.7 C

15.9 C

39 W/m

0.00 mm

06:05

15.7 C

1005.9 hpa

91 %

0.0 km/h aus 115

1.6 km/h aus WNW

14.2 C

15.8 C

15.7 C

15.8 C

44 W/m

0.00 mm

06:10

15.7 C

1005.9 hpa

91 %

0.0 km/h aus 115

3.2 km/h aus WNW

14.2 C

15.8 C

15.7 C

15.8 C

51 W/m

0.00 mm

06:15

15.7 C

1005.9 hpa

91 %

1.6 km/h aus 116

3.2 km/h aus WNW

14.2 C

15.8 C

15.7 C

15.8 C

41 W/m

0.00 mm

06:20

15.7 C

1005.9 hpa

91 %

0.0 km/h aus 117

3.2 km/h aus WNW

14.2 C

15.8 C

15.7 C

15.8 C

46 W/m

0.00 mm

06:25

15.7 C

1005.9 hpa

91 %

0.0 km/h aus 117

0.0 km/h aus ---

14.3 C

15.9 C

15.7 C

15.9 C

41 W/m

0.00 mm

06:30

15.7 C

1005.8 hpa

92 %

1.6 km/h aus 115

3.2 km/h aus WNW

14.4 C

15.9 C

15.7 C

15.9 C

44 W/m

0.00 mm

06:35

15.8 C

1005.8 hpa

92 %

1.6 km/h aus 114

3.2 km/h aus WNW

14.5 C

16.0 C

15.8 C

16.0 C

65 W/m

0.00 mm

06:40

15.8 C

1005.8 hpa

92 %

0.0 km/h aus 116

3.2 km/h aus WNW

14.5 C

16.1 C

15.8 C

16.1 C

80 W/m

0.00 mm

06:45

15.9 C

1005.6 hpa

92 %

1.6 km/h aus 118

4.8 km/h aus WNW

14.6 C

16.2 C

15.9 C

16.2 C

75 W/m

0.00 mm

06:50

16.0 C

1005.6 hpa

92 %

1.6 km/h aus 116

4.8 km/h aus WNW

14.7 C

16.2 C

16.0 C

16.2 C

83 W/m

0.00 mm

06:55

16.1 C

1005.6 hpa

92 %

1.6 km/h aus 115

4.8 km/h aus WNW

14.8 C

16.3 C

16.1 C

16.3 C

74 W/m

0.00 mm

07:00

16.1 C

1005.5 hpa

92 %

1.6 km/h aus 116

4.8 km/h aus WNW

14.8 C

16.3 C

16.1 C

16.3 C

86 W/m

0.00 mm

07:05

16.2 C

1005.5 hpa

92 %

1.6 km/h aus 117

4.8 km/h aus WNW

14.9 C

16.4 C

16.2 C

16.4 C

95 W/m

0.00 mm

07:10

16.3 C

1005.5 hpa

92 %

1.6 km/h aus 116

6.4 km/h aus WNW

15.0 C

16.6 C

16.3 C

16.6 C

102 W/m

0.00 mm

07:15

16.3 C

1005.4 hpa

92 %

3.2 km/h aus 117

8.0 km/h aus N

15.0 C

16.6 C

16.3 C

16.6 C

128 W/m

0.00 mm

07:20

16.4 C

1005.4 hpa

92 %

3.2 km/h aus 114

6.4 km/h aus NNE

15.1 C

16.7 C

16.4 C

16.7 C

119 W/m

0.00 mm

07:25

16.5 C

1005.4 hpa

92 %

1.6 km/h aus 117

4.8 km/h aus NNE

15.2 C

16.8 C

16.5 C

16.8 C

127 W/m

0.00 mm

07:30

16.6 C

1005.4 hpa

92 %

4.8 km/h aus 117

9.7 km/h aus NNW

15.3 C

16.9 C

16.6 C

16.9 C

129 W/m

0.00 mm

07:35

16.7 C

1005.4 hpa

92 %

6.4 km/h aus 116

11.3 km/h aus NNE

15.4 C

17.0 C

16.7 C

17.0 C

163 W/m

0.00 mm

07:40

16.7 C

1005.4 hpa

92 %

6.4 km/h aus 116

11.3 km/h aus NNW

15.4 C

17.1 C

16.7 C

17.1 C

145 W/m

0.00 mm

07:45

16.8 C

1005.4 hpa

92 %

3.2 km/h aus 114

11.3 km/h aus NE

15.5 C

17.2 C

16.8 C

17.2 C

232 W/m

0.00 mm

07:50

16.9 C

1005.4 hpa

92 %

4.8 km/h aus 117

11.3 km/h aus NNE

15.6 C

17.2 C

16.9 C

17.2 C

195 W/m

0.00 mm

07:55

17.1 C

1005.4 hpa

92 %

3.2 km/h aus 117

9.7 km/h aus NE

15.7 C

17.4 C

17.1 C

17.4 C

247 W/m

0.00 mm

08:00

17.2 C

1005.3 hpa

92 %

4.8 km/h aus 117

9.7 km/h aus NE

15.9 C

17.6 C

17.2 C

17.6 C

204 W/m

0.00 mm

08:05

17.3 C

1005.3 hpa

92 %

6.4 km/h aus 115

11.3 km/h aus N

16.0 C

17.7 C

17.3 C

17.7 C

151 W/m

0.00 mm

08:10

17.3 C

1005.3 hpa

91 %

3.2 km/h aus 113

9.7 km/h aus N

15.8 C

17.7 C

17.3 C

17.7 C

107 W/m

0.00 mm

08:15

17.3 C

1005.4 hpa

91 %

4.8 km/h aus 117

9.7 km/h aus ENE

15.8 C

17.7 C

17.3 C

17.7 C

73 W/m

0.00 mm

08:20

17.4 C

1005.4 hpa

91 %

4.8 km/h aus 116

9.7 km/h aus N

15.9 C

17.8 C

17.4 C

17.8 C

84 W/m

0.00 mm

08:25

17.4 C

1005.4 hpa

91 %

6.4 km/h aus 115

14.5 km/h aus N

16.0 C

17.9 C

17.4 C

17.9 C

144 W/m

0.00 mm

08:30

17.5 C

1005.4 hpa

91 %

8.0 km/h aus 115

12.9 km/h aus NNE

16.0 C

17.9 C

17.5 C

17.9 C

223 W/m

0.00 mm

08:35

17.6 C

1005.4 hpa

91 %

6.4 km/h aus 117

16.1 km/h aus N

16.1 C

18.0 C

17.6 C

18.0 C

215 W/m

0.00 mm

08:40

17.7 C

1005.4 hpa

91 %

3.2 km/h aus 116

6.4 km/h aus N

16.2 C

18.1 C

17.7 C

18.1 C

256 W/m

0.00 mm

08:45

17.8 C

1005.4 hpa

91 %

4.8 km/h aus 117

11.3 km/h aus NNE

16.3 C

18.2 C

17.8 C

18.2 C

179 W/m

0.00 mm

08:50

17.8 C

1005.4 hpa

90 %

6.4 km/h aus 115

14.5 km/h aus NE

16.1 C

18.2 C

17.8 C

18.2 C

180 W/m

0.00 mm

08:55

17.8 C

1005.4 hpa

90 %

6.4 km/h aus 117

11.3 km/h aus NE

16.2 C

18.3 C

17.8 C

18.3 C

191 W/m

0.00 mm

09:00

17.8 C

1004.9 hpa

89 %

6.4 km/h aus 117

12.9 km/h aus ENE

16.0 C

18.3 C

17.8 C

18.3 C

210 W/m

0.00 mm

09:05

17.9 C

1004.9 hpa

89 %

4.8 km/h aus 117

11.3 km/h aus NNE

16.0 C

18.3 C

17.9 C

18.3 C

197 W/m

0.00 mm

09:10

17.9 C

1004.9 hpa

89 %

6.4 km/h aus 117

9.7 km/h aus NE

16.0 C

18.3 C

17.9 C

18.3 C

199 W/m

0.00 mm

09:15

17.9 C

1005.1 hpa

89 %

4.8 km/h aus 115

8.0 km/h aus ENE

16.1 C

18.4 C

17.9 C

18.4 C

181 W/m

0.00 mm

09:20

18.0 C

1005.1 hpa

89 %

6.4 km/h aus 115

11.3 km/h aus ENE

16.2 C

18.4 C

18.0 C

18.4 C

190 W/m

0.00 mm

09:25

17.9 C

1005.1 hpa

88 %

8.0 km/h aus 116

14.5 km/h aus ENE

15.9 C

18.4 C

17.9 C

18.4 C

184 W/m

0.00 mm

09:30

18.0 C

1005.3 hpa

88 %

4.8 km/h aus 117

9.7 km/h aus E

16.0 C

18.4 C

18.0 C

18.4 C

209 W/m

0.00 mm

09:35

18.0 C

1005.3 hpa

88 %

9.7 km/h aus 116

16.1 km/h aus ENE

16.0 C

18.4 C

18.0 C

18.4 C

194 W/m

0.00 mm

09:40

17.9 C

1005.3 hpa

88 %

8.0 km/h aus 115

16.1 km/h aus NE

15.9 C

18.4 C

17.9 C

18.4 C

193 W/m

0.00 mm

09:45

18.0 C

1004.9 hpa

88 %

9.7 km/h aus 117

14.5 km/h aus ENE

16.0 C

18.4 C

18.0 C

18.4 C

225 W/m

0.00 mm

09:50

18.0 C

1004.9 hpa

88 %

8.0 km/h aus 117

17.7 km/h aus NE

16.0 C

18.4 C

18.0 C

18.4 C

220 W/m

0.00 mm

09:55

18.1 C

1004.9 hpa

88 %

8.0 km/h aus 118

16.1 km/h aus ENE

16.0 C

18.5 C

18.1 C

18.5 C

220 W/m

0.00 mm

10:00

18.1 C

1004.9 hpa

88 %

6.4 km/h aus 114

16.1 km/h aus NE

16.0 C

18.5 C

18.1 C

18.5 C

203 W/m

0.00 mm

10:05

18.1 C

1004.9 hpa

88 %

4.8 km/h aus 116

12.9 km/h aus N

16.0 C

18.5 C

18.1 C

18.5 C

179 W/m

0.00 mm

10:10

18.1 C

1004.9 hpa

88 %

8.0 km/h aus 116

11.3 km/h aus ENE

16.0 C

18.5 C

18.1 C

18.5 C

179 W/m

0.00 mm

10:15

18.1 C

1005.3 hpa

88 %

6.4 km/h aus 117

11.3 km/h aus ENE

16.0 C

18.5 C

18.1 C

18.5 C

209 W/m

0.00 mm

10:20

18.1 C

1005.3 hpa

88 %

3.2 km/h aus 116

6.4 km/h aus NE

16.0 C

18.5 C

18.1 C

18.5 C

198 W/m

0.00 mm

10:25

18.2 C

1005.3 hpa

88 %

4.8 km/h aus 114

8.0 km/h aus NNE

16.1 C

18.7 C

18.2 C

18.7 C

246 W/m

0.00 mm

10:30

18.2 C

1005.2 hpa

88 %

6.4 km/h aus 116

16.1 km/h aus ENE

16.2 C

18.7 C

18.2 C

18.7 C

293 W/m

0.00 mm

10:35

18.3 C

1005.2 hpa

88 %

4.8 km/h aus 116

11.3 km/h aus NE

16.3 C

18.8 C

18.3 C

18.8 C

281 W/m

0.00 mm

10:40

18.4 C

1005.2 hpa

88 %

8.0 km/h aus 116

14.5 km/h aus NNE

16.4 C

18.9 C

18.4 C

18.9 C

245 W/m

0.00 mm

10:45

18.4 C

1004.9 hpa

88 %

9.7 km/h aus 115

17.7 km/h aus N

16.4 C

19.0 C

18.4 C

19.0 C

285 W/m

0.00 mm

10:50

18.6 C

1004.9 hpa

88 %

8.0 km/h aus 115

19.3 km/h aus NNE

16.5 C

19.1 C

18.6 C

19.1 C

324 W/m

0.00 mm

10:55

18.6 C

1004.9 hpa

87 %

9.7 km/h aus 116

17.7 km/h aus NE

16.3 C

19.1 C

18.6 C

19.1 C

253 W/m

0.00 mm

11:00

18.6 C

1005.4 hpa

86 %

8.0 km/h aus 117

19.3 km/h aus ENE

16.2 C

19.1 C

18.6 C

19.1 C

156 W/m

0.00 mm

11:05

18.5 C

1005.4 hpa

86 %

4.8 km/h aus 116

14.5 km/h aus N

16.1 C

19.0 C

18.5 C

19.0 C

92 W/m

0.00 mm

11:10

18.4 C

1005.4 hpa

86 %

6.4 km/h aus 113

14.5 km/h aus NE

16.1 C

18.9 C

18.4 C

18.9 C

89 W/m

0.00 mm

11:15

18.4 C

1005.3 hpa

86 %

6.4 km/h aus 116

9.7 km/h aus NE

16.1 C

18.9 C

18.4 C

18.9 C

117 W/m

0.00 mm

11:20

18.3 C

1005.3 hpa

86 %

8.0 km/h aus 117

14.5 km/h aus NE

15.9 C

18.8 C

18.3 C

18.8 C

103 W/m

0.00 mm

11:25

18.3 C

1005.3 hpa

87 %

8.0 km/h aus 117

16.1 km/h aus NNE

16.1 C

18.8 C

18.3 C

18.8 C

134 W/m

0.00 mm

11:30

18.3 C

1004.6 hpa

87 %

6.4 km/h aus 116

14.5 km/h aus NNE

16.1 C

18.8 C

18.3 C

18.8 C

230 W/m

0.00 mm

11:35

18.4 C

1004.6 hpa

88 %

6.4 km/h aus 115

12.9 km/h aus NNE

16.4 C

19.0 C

18.4 C

19.0 C

245 W/m

0.00 mm

11:40

18.4 C

1004.6 hpa

88 %

6.4 km/h aus 117

11.3 km/h aus NNE

16.4 C

19.0 C

18.4 C

19.0 C

227 W/m

0.00 mm

11:45

18.5 C

1004.3 hpa

88 %

8.0 km/h aus 117

11.3 km/h aus N

16.5 C

19.1 C

18.5 C

19.1 C

193 W/m

0.00 mm

11:50

18.4 C

1004.3 hpa

88 %

4.8 km/h aus 116

16.1 km/h aus NNE

16.4 C

19.0 C

18.4 C

19.0 C

154 W/m

0.00 mm

11:55

18.4 C

1004.3 hpa

88 %

6.4 km/h aus 115

16.1 km/h aus NNE

16.4 C

19.0 C

18.4 C

19.0 C

133 W/m

0.00 mm

12:00

18.4 C

1004.8 hpa

88 %

4.8 km/h aus 116

9.7 km/h aus NNW

16.4 C

18.9 C

18.4 C

18.9 C

88 W/m

0.00 mm

12:05

18.3 C

1004.8 hpa

88 %

4.8 km/h aus 117

8.0 km/h aus NNE

16.3 C

18.8 C

18.3 C

18.8 C

73 W/m

0.00 mm

12:10

18.3 C

1004.8 hpa

88 %

4.8 km/h aus 117

8.0 km/h aus N

16.3 C

18.8 C

18.3 C

18.8 C

62 W/m

0.00 mm

12:15

18.3 C

1004.9 hpa

88 %

3.2 km/h aus 115

6.4 km/h aus NE

16.3 C

18.8 C

18.3 C

18.8 C

54 W/m

0.00 mm

12:20

18.3 C

1004.9 hpa

88 %

3.2 km/h aus 114

6.4 km/h aus NE

16.3 C

18.8 C

18.3 C

18.8 C

60 W/m

0.00 mm

12:25

18.3 C

1004.9 hpa

88 %

3.2 km/h aus 116

6.4 km/h aus NE

16.3 C

18.8 C

18.3 C

18.8 C

91 W/m

0.25 mm

12:30

18.3 C

1004.8 hpa

88 %

4.8 km/h aus 117

8.0 km/h aus NE

16.3 C

18.8 C

18.3 C

18.8 C

134 W/m

0.76 mm

12:35

18.4 C

1004.8 hpa

89 %

3.2 km/h aus 117

6.4 km/h aus N

16.5 C

18.9 C

18.4 C

18.9 C

167 W/m

0.25 mm

12:40

18.4 C

1004.8 hpa

89 %

4.8 km/h aus 116

8.0 km/h aus N

16.6 C

19.0 C

18.4 C

19.0 C

187 W/m

0.25 mm

12:45

18.5 C

1004.4 hpa

89 %

3.2 km/h aus 115

6.4 km/h aus N

16.7 C

19.1 C

18.5 C

19.1 C

211 W/m

0.00 mm

12:50

18.6 C

1004.4 hpa

90 %

3.2 km/h aus 116

8.0 km/h aus N

16.9 C

19.2 C

18.6 C

19.2 C

189 W/m

0.00 mm

12:55

18.6 C

1004.4 hpa

89 %

3.2 km/h aus 116

6.4 km/h aus NE

16.7 C

19.2 C

18.6 C

19.2 C

115 W/m

0.00 mm

13:00

18.5 C

1004.9 hpa

90 %

1.6 km/h aus 117

6.4 km/h aus ENE

16.8 C

19.1 C

18.5 C

19.1 C

88 W/m

0.00 mm

13:05

18.5 C

1004.9 hpa

90 %

3.2 km/h aus 115

8.0 km/h aus ENE

16.8 C

19.1 C

18.5 C

19.1 C

78 W/m

0.00 mm

13:10

18.4 C

1004.9 hpa

90 %

3.2 km/h aus 117

4.8 km/h aus ENE

16.8 C

19.1 C

18.4 C

19.1 C

94 W/m

0.00 mm

13:15

18.5 C

1004.8 hpa

90 %

1.6 km/h aus 117

4.8 km/h aus ENE

16.8 C

19.1 C

18.5 C

19.1 C

171 W/m

0.00 mm

13:20

18.6 C

1004.8 hpa

90 %

1.6 km/h aus 117

6.4 km/h aus NE

16.9 C

19.2 C

18.6 C

19.2 C

193 W/m

0.00 mm

13:25

18.6 C

1004.8 hpa

90 %

3.2 km/h aus 116

6.4 km/h aus NE

16.9 C

19.3 C

18.6 C

19.3 C

198 W/m

0.00 mm

13:30

18.6 C

1004.5 hpa

90 %

1.6 km/h aus 114

6.4 km/h aus NE

16.9 C

19.3 C

18.6 C

19.3 C

181 W/m

0.00 mm

13:35

18.7 C

1004.5 hpa

91 %

1.6 km/h aus 117

4.8 km/h aus NE

17.2 C

19.3 C

18.7 C

19.3 C

257 W/m

0.00 mm

13:40

18.8 C

1004.5 hpa

91 %

1.6 km/h aus 117

3.2 km/h aus NE

17.3 C

19.5 C

18.8 C

19.5 C

236 W/m

0.25 mm

13:45

18.8 C

1004.3 hpa

91 %

1.6 km/h aus 117

4.8 km/h aus NE

17.3 C

19.6 C

18.8 C

19.6 C

211 W/m

0.00 mm

13:50

18.9 C

1004.3 hpa

91 %

3.2 km/h aus 116

6.4 km/h aus NNE

17.4 C

19.6 C

18.9 C

19.6 C

158 W/m

0.00 mm

13:55

18.9 C

1004.3 hpa

90 %

4.8 km/h aus 115

8.0 km/h aus NE

17.2 C

19.6 C

18.9 C

19.6 C

160 W/m

0.00 mm

14:00

18.9 C

1004.8 hpa

91 %

3.2 km/h aus 117

6.4 km/h aus NNE

17.4 C

19.6 C

18.9 C

19.6 C

167 W/m

0.00 mm

14:05

18.9 C

1004.8 hpa

90 %

3.2 km/h aus 115

8.0 km/h aus ENE

17.3 C

19.7 C

18.9 C

19.7 C

104 W/m

0.00 mm

14:10

18.9 C

1004.8 hpa

90 %

4.8 km/h aus 117

8.0 km/h aus E

17.3 C

19.7 C

18.9 C

19.7 C

118 W/m

0.00 mm

14:15

18.9 C

1004.6 hpa

90 %

1.6 km/h aus 115

4.8 km/h aus ENE

17.3 C

19.7 C

18.9 C

19.7 C

73 W/m

0.00 mm

14:20

18.9 C

1004.6 hpa

90 %

1.6 km/h aus 116

4.8 km/h aus ENE

17.3 C

19.7 C

18.9 C

19.7 C

48 W/m

0.00 mm

14:25

18.9 C

1004.6 hpa

90 %

3.2 km/h aus 117

6.4 km/h aus E

17.2 C

19.6 C

18.9 C

19.6 C

47 W/m

0.00 mm

14:30

18.8 C

1005.3 hpa

90 %

4.8 km/h aus 117

8.0 km/h aus E

17.2 C

19.6 C

18.8 C

19.6 C

39 W/m

0.00 mm

14:35

18.8 C

1005.3 hpa

90 %

4.8 km/h aus 117

6.4 km/h aus ESE

17.1 C

19.4 C

18.8 C

19.4 C

39 W/m

0.00 mm

14:40

18.7 C

1005.3 hpa

91 %

4.8 km/h aus 112

9.7 km/h aus E

17.2 C

19.4 C

18.7 C

19.4 C

34 W/m

0.51 mm

14:45

18.7 C

1005.4 hpa

91 %

4.8 km/h aus 116

8.0 km/h aus ESE

17.2 C

19.3 C

18.7 C

19.3 C

29 W/m

0.25 mm

14:50

18.6 C

1005.4 hpa

91 %

3.2 km/h aus 117

6.4 km/h aus E

17.1 C

19.3 C

18.6 C

19.3 C

68 W/m

0.51 mm

14:55

18.7 C

1005.4 hpa

91 %

1.6 km/h aus 115

3.2 km/h aus ENE

17.2 C

19.3 C

18.7 C

19.3 C

131 W/m

0.51 mm

15:00

18.7 C

1004.9 hpa

91 %

3.2 km/h aus 114

6.4 km/h aus ESE

17.2 C

19.3 C

18.7 C

19.3 C

104 W/m

0.25 mm

15:05

18.7 C

1004.9 hpa

92 %

3.2 km/h aus 114

6.4 km/h aus SE

17.4 C

19.4 C

18.7 C

19.4 C

57 W/m

0.25 mm

15:10

18.7 C

1004.9 hpa

92 %

4.8 km/h aus 117

8.0 km/h aus ESE

17.3 C

19.3 C

18.7 C

19.3 C

48 W/m

0.00 mm

15:15

18.6 C

1005.2 hpa

91 %

3.2 km/h aus 118

6.4 km/h aus E

17.1 C

19.3 C

18.6 C

19.3 C

59 W/m

0.25 mm

15:20

18.5 C

1005.2 hpa

92 %

4.8 km/h aus 117

9.7 km/h aus E

17.2 C

19.2 C

18.5 C

19.2 C

52 W/m

0.00 mm

15:25

18.4 C

1005.2 hpa

92 %

4.8 km/h aus 115

9.7 km/h aus ESE

17.1 C

19.1 C

18.4 C

19.1 C

55 W/m

0.00 mm

15:30

18.4 C

1005.4 hpa

92 %

4.8 km/h aus 116

8.0 km/h aus ENE

17.1 C

19.1 C

18.4 C

19.1 C

62 W/m

0.00 mm

15:35

18.4 C

1005.4 hpa

92 %

4.8 km/h aus 116

8.0 km/h aus E

17.1 C

19.1 C

18.4 C

19.1 C

46 W/m

0.00 mm

15:40

18.3 C

1005.4 hpa

92 %

4.8 km/h aus 117

6.4 km/h aus ESE

17.0 C

18.9 C

18.3 C

18.9 C

63 W/m

0.25 mm

15:45

18.3 C

1005.4 hpa

92 %

4.8 km/h aus 117

11.3 km/h aus ESE

17.0 C

18.9 C

18.3 C

18.9 C

62 W/m

0.25 mm

15:50

18.3 C

1005.4 hpa

92 %

8.0 km/h aus 114

17.7 km/h aus SE

17.0 C

18.9 C

18.3 C

18.9 C

49 W/m

0.51 mm

15:55

18.2 C

1005.4 hpa

92 %

6.4 km/h aus 116

12.9 km/h aus ESE

16.9 C

18.8 C

18.2 C

18.8 C

43 W/m

0.25 mm

16:00

18.2 C

1004.9 hpa

92 %

6.4 km/h aus 117

14.5 km/h aus E

16.8 C

18.7 C

18.2 C

18.7 C

38 W/m

0.25 mm

16:05

18.1 C

1004.9 hpa

93 %

6.4 km/h aus 117

9.7 km/h aus ESE

17.0 C

18.7 C

18.1 C

18.7 C

39 W/m

0.51 mm

16:10

18.1 C

1004.9 hpa

93 %

14.5 km/h aus 115

35.4 km/h aus S

16.9 C

17.8 C

17.2 C

18.6 C

20 W/m

0.25 mm

16:15

17.3 C

1005.7 hpa

90 %

20.9 km/h aus 114

37.0 km/h aus S

15.6 C

15.3 C

14.9 C

17.7 C

40 W/m

0.25 mm

16:20

16.8 C

1005.7 hpa

90 %

11.3 km/h aus 118

19.3 km/h aus S

15.1 C

16.9 C

16.6 C

17.1 C

75 W/m

0.00 mm

16:25

16.4 C

1005.7 hpa

91 %

6.4 km/h aus 116

14.5 km/h aus SSW

15.0 C

16.7 C

16.4 C

16.7 C

68 W/m

0.00 mm

16:30

16.3 C

1005.9 hpa

91 %

4.8 km/h aus 116

9.7 km/h aus S

14.9 C

16.6 C

16.3 C

16.6 C

68 W/m

0.00 mm

16:35

16.3 C

1005.9 hpa

91 %

9.7 km/h aus 115

17.7 km/h aus S

14.8 C

16.5 C

16.2 C

16.6 C

53 W/m

0.00 mm

16:40

16.2 C

1005.9 hpa

91 %

8.0 km/h aus 115

17.7 km/h aus SW

14.7 C

16.4 C

16.2 C

16.4 C

73 W/m

0.00 mm

16:45

16.0 C

1006.2 hpa

91 %

12.9 km/h aus 117

24.1 km/h aus SSE

14.5 C

15.5 C

15.3 C

16.2 C

87 W/m

0.00 mm

16:50

15.8 C

1006.2 hpa

90 %

16.1 km/h aus 117

27.4 km/h aus S

14.2 C

14.4 C

14.2 C

16.1 C

96 W/m

0.00 mm

16:55

15.6 C

1006.2 hpa

90 %

17.7 km/h aus 116

27.4 km/h aus SSW

13.9 C

13.7 C

13.5 C

15.7 C

109 W/m

0.00 mm

17:00

15.4 C

1006.6 hpa

90 %

17.7 km/h aus 115

25.7 km/h aus SSW

13.8 C

13.5 C

13.3 C

15.6 C

94 W/m

0.00 mm

17:05

15.3 C

1006.6 hpa

91 %

16.1 km/h aus 115

29.0 km/h aus SSW

13.9 C

13.8 C

13.6 C

15.5 C

107 W/m

0.00 mm

17:10

15.3 C

1006.6 hpa

91 %

9.7 km/h aus 117

24.1 km/h aus SW

13.9 C

15.2 C

15.1 C

15.5 C

98 W/m

0.00 mm

17:15

15.3 C

1005.9 hpa

91 %

11.3 km/h aus 117

19.3 km/h aus SSW

13.9 C

15.0 C

14.8 C

15.5 C

92 W/m

0.00 mm

17:20

15.3 C

1005.9 hpa

91 %

12.9 km/h aus 117

19.3 km/h aus S

13.9 C

14.6 C

14.4 C

15.5 C

144 W/m

0.00 mm

17:25

15.4 C

1005.9 hpa

91 %

8.0 km/h aus 115

17.7 km/h aus SSW

13.9 C

15.5 C

15.3 C

15.6 C

194 W/m

0.00 mm

17:30

15.4 C

1005.8 hpa

91 %

9.7 km/h aus 116

17.7 km/h aus SSW

14.0 C

15.4 C

15.2 C

15.6 C

214 W/m

0.00 mm

17:35

15.5 C

1005.8 hpa

91 %

11.3 km/h aus 117

20.9 km/h aus S

14.0 C

15.2 C

15.1 C

15.7 C

213 W/m

0.00 mm

17:40

15.6 C

1005.8 hpa

91 %

14.5 km/h aus 117

29.0 km/h aus S

14.1 C

14.5 C

14.3 C

15.8 C

155 W/m

0.00 mm

17:45

15.7 C

1005.9 hpa

91 %

17.7 km/h aus 117

24.1 km/h aus SSW

14.2 C

13.8 C

13.6 C

15.8 C

219 W/m

0.00 mm

17:50

16.2 C

1005.9 hpa

91 %

14.5 km/h aus 114

25.7 km/h aus SSW

14.7 C

15.2 C

15.0 C

16.4 C

451 W/m

0.00 mm

17:55

16.8 C

1005.9 hpa

88 %

20.9 km/h aus 116

27.4 km/h aus SSE

14.8 C

14.6 C

14.3 C

17.1 C

558 W/m

0.00 mm

18:00

17.1 C

1006.0 hpa

88 %

17.7 km/h aus 117

25.7 km/h aus S

15.1 C

15.6 C

15.2 C

17.4 C

363 W/m

0.00 mm

18:05

16.8 C

1006.0 hpa

86 %

19.3 km/h aus 116

30.6 km/h aus SSW

14.5 C

14.9 C

14.7 C

17.1 C

182 W/m

0.00 mm

18:10

16.6 C

1006.0 hpa

85 %

19.3 km/h aus 116

30.6 km/h aus SSW

14.0 C

14.5 C

14.3 C

16.7 C

186 W/m

0.00 mm

18:15

16.6 C

1005.8 hpa

86 %

16.1 km/h aus 114

22.5 km/h aus SSW

14.3 C

15.3 C

15.1 C

16.8 C

521 W/m

0.00 mm

18:20

16.7 C

1005.8 hpa

85 %

12.9 km/h aus 116

22.5 km/h aus SSE

14.2 C

16.3 C

16.1 C

16.9 C

380 W/m

0.00 mm

18:25

16.9 C

1005.8 hpa

85 %

12.9 km/h aus 118

20.9 km/h aus S

14.3 C

16.6 C

16.3 C

17.1 C

351 W/m

0.00 mm

18:30

17.2 C

1005.8 hpa

84 %

9.7 km/h aus 117

17.7 km/h aus S

14.4 C

17.4 C

17.2 C

17.4 C

373 W/m

0.00 mm

18:35

17.1 C

1005.8 hpa

83 %

14.5 km/h aus 115

22.5 km/h aus S

14.2 C

16.3 C

16.1 C

17.3 C

200 W/m

0.00 mm

18:40

17.1 C

1005.8 hpa

82 %

11.3 km/h aus 115

20.9 km/h aus SW

14.0 C

17.1 C

16.9 C

17.2 C

314 W/m

0.00 mm

18:45

17.1 C

1005.8 hpa

82 %

12.9 km/h aus 117

24.1 km/h aus SSW

14.0 C

16.7 C

16.5 C

17.2 C

196 W/m

0.00 mm

18:50

17.2 C

1005.8 hpa

83 %

12.9 km/h aus 114

22.5 km/h aus SSW

14.3 C

16.9 C

16.7 C

17.4 C

134 W/m

0.00 mm

18:55

17.2 C

1005.8 hpa

82 %

12.9 km/h aus 117

20.9 km/h aus S

14.1 C

16.9 C

16.7 C

17.4 C

118 W/m

0.00 mm

19:00

17.1 C

1005.7 hpa

82 %

11.3 km/h aus 113

17.7 km/h aus S

14.0 C

17.3 C

17.1 C

17.3 C

90 W/m

0.00 mm

19:05

17.1 C

1005.7 hpa

82 %

11.3 km/h aus 116

20.9 km/h aus SSE

14.0 C

17.3 C

17.1 C

17.3 C

62 W/m

0.00 mm

19:10

17.1 C

1005.7 hpa

81 %

9.7 km/h aus 116

17.7 km/h aus SW

13.8 C

17.2 C

17.1 C

17.2 C

57 W/m

0.00 mm

19:15

17.1 C

1005.8 hpa

82 %

8.0 km/h aus 117

16.1 km/h aus SSW

14.0 C

17.2 C

17.1 C

17.2 C

63 W/m

0.00 mm

19:20

17.2 C

1005.8 hpa

82 %

11.3 km/h aus 116

17.7 km/h aus SSE

14.1 C

17.3 C

17.1 C

17.4 C

61 W/m

0.00 mm

19:25

17.2 C

1005.8 hpa

83 %

9.7 km/h aus 114

19.3 km/h aus S

14.3 C

17.4 C

17.2 C

17.4 C

68 W/m

0.00 mm

19:30

17.2 C

1005.9 hpa

82 %

11.3 km/h aus 117

19.3 km/h aus SSW

14.1 C

17.3 C

17.1 C

17.4 C

60 W/m

0.00 mm

19:35

17.2 C

1005.9 hpa

82 %

9.7 km/h aus 117

19.3 km/h aus SSW

14.1 C

17.4 C

17.2 C

17.4 C

54 W/m

0.00 mm

19:40

17.2 C

1005.9 hpa

82 %

11.3 km/h aus 117

17.7 km/h aus S

14.1 C

17.3 C

17.1 C

17.4 C

53 W/m

0.00 mm

19:45

17.2 C

1005.9 hpa

81 %

9.7 km/h aus 116

14.5 km/h aus SSW

13.9 C

17.3 C

17.2 C

17.3 C

59 W/m

0.00 mm

19:50

17.2 C

1005.9 hpa

81 %

12.9 km/h aus 115

20.9 km/h aus SSW

13.9 C

16.8 C

16.7 C

17.3 C

49 W/m

0.00 mm

19:55

17.2 C

1005.9 hpa

82 %

9.7 km/h aus 117

17.7 km/h aus S

14.1 C

17.4 C

17.2 C

17.4 C

58 W/m

0.00 mm

20:00

17.2 C

1006.0 hpa

82 %

11.3 km/h aus 117

17.7 km/h aus S

14.1 C

17.4 C

17.2 C

17.4 C

39 W/m

0.00 mm

20:05

17.2 C

1006.0 hpa

82 %

9.7 km/h aus 117

17.7 km/h aus S

14.1 C

17.4 C

17.2 C

17.4 C

35 W/m

0.00 mm

20:10

17.2 C

1006.0 hpa

82 %

9.7 km/h aus 114

19.3 km/h aus SSW

14.1 C

17.4 C

17.2 C

17.4 C

34 W/m

0.00 mm

20:15

17.1 C

1006.0 hpa

82 %

14.5 km/h aus 115

22.5 km/h aus S

14.0 C

16.3 C

16.1 C

17.3 C

33 W/m

0.00 mm

20:20

17.1 C

1006.0 hpa

82 %

11.3 km/h aus 117

19.3 km/h aus S

14.0 C

17.1 C

16.9 C

17.2 C

36 W/m

0.00 mm

20:25

17.1 C

1006.0 hpa

82 %

14.5 km/h aus 117

20.9 km/h aus S

14.0 C

16.2 C

16.0 C

17.2 C

32 W/m

0.00 mm

20:30

17.1 C

1006.1 hpa

81 %

12.9 km/h aus 117

24.1 km/h aus S

13.8 C

16.7 C

16.5 C

17.2 C

27 W/m

0.00 mm

20:35

17.0 C

1006.1 hpa

80 %

17.7 km/h aus 115

24.1 km/h aus S

13.5 C

15.3 C

15.2 C

17.2 C

26 W/m

0.00 mm

20:40

17.1 C

1006.1 hpa

80 %

11.3 km/h aus 116

20.9 km/h aus SSW

13.6 C

17.1 C

16.9 C

17.2 C

23 W/m

0.00 mm

20:45

17.1 C

1006.4 hpa

80 %

11.3 km/h aus 117

17.7 km/h aus SSW

13.6 C

17.1 C

16.9 C

17.2 C

21 W/m

0.00 mm

20:50

17.0 C

1006.4 hpa

80 %

12.9 km/h aus 117

20.9 km/h aus S

13.5 C

16.6 C

16.4 C

17.2 C

19 W/m

0.00 mm

20:55

16.9 C

1006.4 hpa

80 %

11.3 km/h aus 116

19.3 km/h aus S

13.5 C

17.0 C

16.8 C

17.1 C

18 W/m

0.00 mm

21:00

16.8 C

1006.6 hpa

81 %

12.9 km/h aus 113

20.9 km/h aus SSE

13.6 C

16.4 C

16.3 C

17.0 C

16 W/m

0.00 mm

21:05

16.7 C

1006.6 hpa

81 %

11.3 km/h aus 117

17.7 km/h aus S

13.4 C

16.7 C

16.6 C

16.8 C

14 W/m

0.00 mm

21:10

16.6 C

1006.6 hpa

81 %

9.7 km/h aus 117

19.3 km/h aus S

13.3 C

16.7 C

16.6 C

16.7 C

13 W/m

0.00 mm

21:15

16.6 C

1006.8 hpa

81 %

9.7 km/h aus 117

14.5 km/h aus SSW

13.3 C

16.7 C

16.6 C

16.7 C

11 W/m

0.00 mm

21:20

16.4 C

1006.8 hpa

81 %

8.0 km/h aus 116

11.3 km/h aus SSW

13.2 C

16.5 C

16.4 C

16.5 C

10 W/m

0.00 mm

21:25

16.3 C

1006.8 hpa

81 %

8.0 km/h aus 114

9.7 km/h aus S

13.1 C

16.4 C

16.3 C

16.4 C

8 W/m

0.00 mm

21:30

16.2 C

1007.0 hpa

81 %

6.4 km/h aus 117

12.9 km/h aus S

13.0 C

16.3 C

16.2 C

16.3 C

7 W/m

0.00 mm

21:35

16.1 C

1007.0 hpa

81 %

6.4 km/h aus 117

9.7 km/h aus S

12.8 C

16.1 C

16.1 C

16.1 C

5 W/m

0.00 mm

21:40

15.9 C

1007.0 hpa

82 %

6.4 km/h aus 118

8.0 km/h aus S

12.9 C

16.0 C

15.9 C

16.0 C

3 W/m

0.00 mm

21:45

15.8 C

1007.3 hpa

82 %

6.4 km/h aus 115

8.0 km/h aus S

12.7 C

15.8 C

15.8 C

15.8 C

0 W/m

0.00 mm

21:50

15.6 C

1007.3 hpa

82 %

8.0 km/h aus 114

11.3 km/h aus SSE

12.5 C

15.6 C

15.6 C

15.6 C

0 W/m

0.00 mm

21:55

15.4 C

1007.3 hpa

82 %

8.0 km/h aus 117

9.7 km/h aus SSE

12.3 C

15.3 C

15.3 C

15.4 C

0 W/m

0.00 mm

22:00

15.2 C

1007.5 hpa

82 %

6.4 km/h aus 117

9.7 km/h aus SSE

12.2 C

15.2 C

15.2 C

15.2 C

0 W/m

0.00 mm

22:05

15.1 C

1007.5 hpa

83 %

6.4 km/h aus 117

8.0 km/h aus S

12.2 C

15.0 C

15.1 C

15.0 C

0 W/m

0.00 mm

22:10

14.9 C

1007.5 hpa

83 %

6.4 km/h aus 115

9.7 km/h aus SSE

12.0 C

14.8 C

14.9 C

14.8 C

0 W/m

0.00 mm

22:15

14.7 C

1007.7 hpa

83 %

8.0 km/h aus 114

11.3 km/h aus SSE

11.9 C

14.5 C

14.6 C

14.7 C

0 W/m

0.00 mm

22:20

14.6 C

1007.7 hpa

83 %

8.0 km/h aus 117

9.7 km/h aus SSE

11.7 C

14.3 C

14.3 C

14.5 C

0 W/m

0.00 mm

22:25

14.3 C

1007.7 hpa

84 %

8.0 km/h aus 116

9.7 km/h aus SE

11.7 C

14.1 C

14.1 C

14.3 C

0 W/m

0.00 mm

22:30

14.2 C

1008.0 hpa

84 %

6.4 km/h aus 117

9.7 km/h aus SE

11.6 C

14.2 C

14.2 C

14.2 C

0 W/m

0.00 mm

22:35

14.1 C

1008.0 hpa

84 %

6.4 km/h aus 116

8.0 km/h aus SE

11.4 C

14.0 C

14.1 C

14.0 C

0 W/m

0.00 mm

22:40

13.9 C

1008.0 hpa

85 %

4.8 km/h aus 114

8.0 km/h aus SE

11.5 C

13.9 C

13.9 C

13.9 C

0 W/m

0.00 mm

22:45

13.8 C

1008.1 hpa

85 %

4.8 km/h aus 118

6.4 km/h aus SE

11.4 C

13.8 C

13.8 C

13.8 C

0 W/m

0.00 mm

22:50

13.7 C

1008.1 hpa

86 %

8.0 km/h aus 117

8.0 km/h aus SE

11.4 C

13.3 C

13.3 C

13.6 C

0 W/m

0.00 mm

22:55

13.6 C

1008.1 hpa

86 %

8.0 km/h aus 117

9.7 km/h aus SE

11.3 C

13.1 C

13.2 C

13.5 C

0 W/m

0.00 mm

23:00

13.4 C

1008.4 hpa

87 %

8.0 km/h aus 116

9.7 km/h aus SE

11.3 C

13.1 C

13.1 C

13.4 C

0 W/m

0.00 mm

23:05

13.4 C

1008.4 hpa

87 %

6.4 km/h aus 114

8.0 km/h aus SE

11.3 C

13.3 C

13.3 C

13.4 C

0 W/m

0.00 mm

23:10

13.3 C

1008.4 hpa

88 %

6.4 km/h aus 117

8.0 km/h aus SE

11.3 C

13.2 C

13.2 C

13.3 C

0 W/m

0.00 mm

23:15

13.2 C

1008.1 hpa

88 %

6.4 km/h aus 117

8.0 km/h aus SE

11.3 C

13.1 C

13.1 C

13.2 C

0 W/m

0.00 mm

23:20

13.1 C

1008.1 hpa

88 %

8.0 km/h aus 117

9.7 km/h aus SE

11.2 C

12.7 C

12.7 C

13.1 C

0 W/m

0.00 mm

23:25

13.0 C

1008.1 hpa

89 %

8.0 km/h aus 117

9.7 km/h aus SE

11.2 C

12.6 C

12.6 C

13.1 C

0 W/m

0.00 mm

23:30

12.9 C

1008.1 hpa

89 %

6.4 km/h aus 114

8.0 km/h aus SE

11.1 C

12.7 C

12.7 C

12.9 C

0 W/m

0.00 mm

23:35

12.9 C

1008.1 hpa

89 %

3.2 km/h aus 116

4.8 km/h aus SE

11.1 C

12.9 C

12.9 C

12.9 C

0 W/m

0.00 mm

23:40

12.8 C

1008.1 hpa

89 %

3.2 km/h aus 117

4.8 km/h aus SE

11.1 C

12.9 C

12.8 C

12.9 C

0 W/m

0.00 mm

23:45

12.8 C

1008.3 hpa

89 %

4.8 km/h aus 118

4.8 km/h aus SE

11.0 C

12.8 C

12.8 C

12.8 C

0 W/m

0.00 mm

23:50

12.7 C

1008.3 hpa

89 %

4.8 km/h aus 117

4.8 km/h aus SE

11.0 C

12.8 C

12.7 C

12.8 C

0 W/m

0.00 mm

23:55

12.6 C

1008.3 hpa

89 %

4.8 km/h aus 115

4.8 km/h aus SE

10.8 C

12.7 C

12.6 C

12.7 C

0 W/m

0.00 mm